Location: Bussy-Saint-Georges
(48.8410°N, 2.7017°E)
Time: 14:57:27
(UTC+00:00)

Landsat 5 - Pass Details

Date: 18 October 2021
Orbit: 528 x 652 km, 98.2° (Epoch: 28 November)

Event Time Altitude Azimuth Distance (km) Brightness Sun altitude
Rises 18:03:03 0° 14° (NNE) 2,879 6.8 -12.2°
Reaches altitude 10° 18:05:13 10° 16° (NNE) 1,989 6.0 -12.5°
Maximum altitude 18:09:33 81° 103° (ESE) 645 3.5 -13.2°
Drops below altitude 10° 18:14:00 10° 192° (SSW) 2,032 6.3 -14.0°
Sets 18:16:14 0° 193° (SSW) 2,947 7.2 -14.3°
